Regional Weather Roundup
Issued by NWS

Home | Current Version | Previous Version | Graphics & Text | Print | Product List | Glossary On
Versions: 1 2 3 4 5 6 7 8 9 10 11 12 13 14 15 16 17 18 19 20 21 22 23 24 25 26 27 28 29 30 31 32 33 34 35 36 37 38 39 40 41 42 43 44 45 46 47 48 49 50
330
ASUS45 KPSR 122310
RWRAZ

ARIZONA HOURLY REGIONAL WEATHER ROUNDUP
NATIONAL WEATHER SERVICE PHOENIX AZ
400 PM MST TUE DEC 12 2017

NOTE: FAIR INDICATES FEW OR NO CLOUDS BELOW 12,000 FEET WITH NO
SIGNIFICANT WEATHER AND/OR OBSTRUCTIONS TO VISIBILITY.

AZZ001>003-036-130000-
NORTHWEST ARIZONA

CITY           SKY/WX    TMP DP  RH WIND       PRES   REMARKS
BULLHEAD CITY  SUNNY     73  -2   5 N21G26    30.12F
KINGMAN        SUNNY     66   3   8 NE8       30.22F
$$

AZZ004>008-015-016-018-130000-
NORTH CENTRAL ARIZONA

CITY           SKY/WX    TMP DP  RH WIND       PRES   REMARKS
GRAND CANYON   SUNNY     53   7  15 E14       30.36F
WILLIAMS       SUNNY     59   3  10 N8        30.30S
PRESCOTT       SUNNY     64  -2   7 S9        30.25F
FLAGSTAFF      SUNNY     51  -1  11 E8        30.35F
PAYSON         SUNNY     59  -4   7 SW6       30.27S
PAGE           SUNNY     49  16  26 NE3       30.34F
$$

AZZ009>014-017-130000-
NORTHEAST ARIZONA

CITY           SKY/WX    TMP DP  RH WIND       PRES   REMARKS
WINSLOW        SUNNY     51  -1  11 CALM      30.34F
SAINT JOHNS    SUNNY     52  -5   9 NW6       30.32F
WINDOW ROCK    CLEAR     58   0   9 E7        30.33F
SHOW LOW       SUNNY     50  -6  10 N5        30.35F
$$

AZZ540-542>544-546-548-130000-
GREATER PHOENIX AREA

CITY           SKY/WX    TMP DP  RH WIND       PRES   REMARKS
PHOENIX        PTSUNNY   74  10   8 NE7       30.08F
BUCKEYE        PTSUNNY   70  68  94 E7        30.09F
GLENDALE       PTSUNNY   72  21  15 CALM      30.10F
LUKE AFB       PTSUNNY   71  16  12 CALM      30.07F
DEER VALLEY    PTSUNNY   74   0   5 SE7       30.09F
SCOTTSDALE     PTSUNNY   74  12   9 SE8       30.11F
MESA-FALCON    MOSUNNY   73   9   8 NE10      30.10F
MESA-GATEWAY   MOSUNNY   75   7   7 E12       30.10F
CHANDLER       PTSUNNY   75   9   7 CALM      30.09F
$$

AZZ539-553-130000-
SOUTHWEST MARICOPA COUNTY AND PINAL COUNTY

CITY           SKY/WX    TMP DP  RH WIND       PRES   REMARKS
CASA GRANDE    NOT AVBL
GILA BEND      PTSUNNY   73   7   7 E3        30.05F
$$

AZZ503-504-507>509-130000-
SOUTHEAST ARIZONA

CITY           SKY/WX    TMP DP  RH WIND       PRES   REMARKS
TUCSON         CLOUDY    71   8   8 NE10      30.12F
DAVIS-MONTHAN  PTSUNNY   69   8   9 NE16      30.10F
RYAN FIELD     SUNNY     73  10   9 E17       30.11F
NOGALES        SUNNY     69  18  14 E10       30.13F
SIERRA VISTA   MOSUNNY   64   8  11 E10       30.21F
DOUGLAS        SUNNY     63  11  13 E22       30.20F
SAFFORD        MOSUNNY   65   5   9 SE14      30.23F
$$

AZZ532-130000-
SOUTHWEST ARIZONA

CITY           SKY/WX    TMP DP  RH WIND       PRES   REMARKS
YUMA           PTSUNNY   75   5   6 N16       30.06F
$$

CAZ041-043-047-048-061-525>527-560>570-130000-
SOUTHERN CALIFORNIA

CITY           SKY/WX    TMP DP  RH WIND       PRES   REMARKS
DOWNTOWN L.A.  SUNNY     79  12   8 CALM      30.03F
L.A. AIRPORT   MOSUNNY   74  35  24 W9        30.04F
SAN DIEGO      MOSUNNY   76  19  11 NW8       30.04F
BURBANK        SUNNY     83   3   4 VRB5      30.04F
ONTARIO        MOSUNNY   81 -10   3 W5        30.06F
RIVERSIDE      SUNNY     83   2   4 N7        30.06F
PALM SPRINGS   SUNNY     83   5   5 SE5       30.09F
EL CENTRO NAS  MOSUNNY   78  -7   3 NW3       30.09F
IMPERIAL       SUNNY     78   3   5 VRB5      30.07F
BLYTHE         SUNNY     74  16  11 VRB5      30.10F
NEEDLES        SUNNY     75  -1   5 N14       30.13F
$$

NVZ020-UTZ003-130000-
SOUTHERN NEVADA-UTAH

CITY           SKY/WX    TMP DP  RH WIND       PRES   REMARKS
LAS VEGAS      MOSUNNY   68   1   7 CALM      30.20F
SALT LAKE CITY FOG       27  25  92 N6        30.47F VSB 1/4 WCI  20
$$

NMZ009-TXZ055-130000-
NEW MEXICO-WEST TEXAS

CITY           SKY/WX    TMP DP  RH WIND       PRES   REMARKS
ALBUQUERQUE    PTCLDY    53   2  12 SW5       30.33F
EL PASO        SUNNY     60  13  15 E7        30.31F
$$


........................KEY........................
SKY/WX - SKY CONDITION/WEATHER
TMP    - TEMPERATURE IN FAHRENHEIT
DP     - DEW POINT IN FAHRENHEIT
RH     - RELATIVE HUMIDITY IN PERCENT
WIND   - DIRECTION AND SPEED IN MILES PER HOUR (MPH)
VRB    - VARIABLE WIND DIRECTION
PRES   - MEAN SEA LEVEL PRESSURE IN INCHES OF MERCURY
         F - FALLING PRESSURE   R - RISING PRESSURE
         S - STEADY PRESSURE
VSB    - VISIBILITY IN MILES
HX     - HEAT INDEX IN FAHRENHEIT
WCI    - WIND CHILL INDEX IN FAHRENHEIT
TC     - TEMPERATURE IN CELSIUS WHICH IS ALSO KNOWN AS
         TEMPERATURE IN CENTIGRADE
AFB    - AIR FORCE BASE
         LUKE AFB IS LUKE AIR FORCE BASE
         DAVIS-MONTHAN IS DAVIS-MONTHAN AIR FORCE BASE
NAS    - NAVAL AIR STATION
         EL CENTRO NAS IS EL CENTRO NAVAL AIR STATION
N/A    - NOT AVAILABLE





USA.gov is the U.S. government's official web portal to all federal, state and local government web resources and services.